This is the latest recevied weather packets stored in our database for station/object K6GMW. If no packets are shown the sender has not sent any weather packets the latest 10 day(s).
| Time | Temp. | Humidity | Pressure | Rain* | Wind** | Luminosity | Snow |
|---|---|---|---|---|---|---|---|
| 1778166225 | 17.22° C | 66% | 1020.7 hPa | 0 mm | - | 733 W/m² | - |
| 1778165921 | 16.67° C | 66% | 1020.7 hPa | 0 mm | - | 718 W/m² | - |
| 1778165617 | 16.67° C | 69% | 1020.5 hPa | 0 mm | - | 202 W/m² | - |
| 1778165314 | 16.11° C | 69% | 1020.7 hPa | 0 mm | - | 686 W/m² | - |
| 1778165012 | 16.11° C | 72% | 1020.8 hPa | 0 mm | - | 637 W/m² | - |
| 1778164708 | 15.56° C | 73% | 1020.8 hPa | 0 mm | - | 352 W/m² | - |
| 1778164405 | 16.11° C | 72% | 1020.9 hPa | 0 mm | - | 377 W/m² | - |
| 1778164101 | 15.56° C | 73% | 1021 hPa | 0 mm | - | 439 W/m² | - |
| 1778163798 | 15° C | 75% | 1020.9 hPa | 0 mm | - | 221 W/m² | - |
| 1778163495 | 15° C | 75% | 1021 hPa | 0 mm | - | 228 W/m² | - |
| 1778163191 | 15° C | 77% | 1021.1 hPa | 0 mm | - | 196 W/m² | - |
| 1778162888 | 15° C | 77% | 1021 hPa | 0 mm | - | 307 W/m² | - |
| 1778162585 | 15° C | 78% | 1020.8 hPa | 0 mm | - | 183 W/m² | - |
| 1778162282 | 14.44° C | 80% | 1021.1 hPa | 0 mm | - | 418 W/m² | - |
| 1778161979 | 13.89° C | 81% | 1021 hPa | 0 mm | - | 502 W/m² | - |
| 1778161676 | 14.44° C | 80% | 1020.9 hPa | 0 mm | - | 97 W/m² | - |
| 1778161372 | 14.44° C | 83% | 1021 hPa | 0 mm | - | 190 W/m² | - |
| 1778161068 | 14.44° C | 82% | 1020.8 hPa | 0 mm | - | 400 W/m² | - |
| 1778160765 | 13.89° C | 85% | 1020.8 hPa | 0 mm | - | 422 W/m² | - |
| 1778160463 | 13.33° C | 87% | 1020.9 hPa | 0 mm | - | 339 W/m² | - |
| 1778160159 | 13.33° C | 89% | 1020.9 hPa | 0 mm | - | 329 W/m² | - |
| 1778159856 | 12.78° C | 89% | 1021.1 hPa | 0 mm | - | 262 W/m² | - |
| 1778159553 | 12.78° C | 93% | 1021 hPa | 0 mm | - | 263 W/m² | - |
| 1778159250 | 12.22° C | 93% | 1021.2 hPa | 0 mm | - | 243 W/m² | - |
| 1778158947 | 12.22° C | 94% | 1021.1 hPa | 0 mm | - | 180 W/m² | - |
* Rain latest hour (hover to see other rain measurements)
** Current wind speed in m/s (hover to see current wind gust speed)